Tracking 28779 objects as of 15-Apr-2024
HD Live streaming from Space Station
objects crossing your sky now

FENGYUN 1C DEB

Track FENGYUN 1C DEB now!
10-day predictions


NORAD ID: 30327
Int'l Code: 1999-025AAN
Perigee: 771.5 km
Apogee: 967.2 km
Inclination: 98.5 °
Period: 102.2 minutes
Semi major axis: 7240 km
RCS: 0.0095 m2 (small)
Launch date: May 10, 1999
Source: People's Republic of China (PRC)
Launch site: Taiyaun Space Center, China (TSC)

Note: This is SATELLITE DEBRIS
Your satellite tracking list
Your tracking list is empty




NASA's NSSDC Master Catalog

Two Line Element Set (TLE):
1 30327U 99025AAN 24106.33306501  .00006483  00000-0  34482-2 0  9998
2 30327  98.4603  26.9681 0135163  86.2682  39.0298 14.09167208878721
Source of the keplerian elements: AFSPC